Lexington Weather

Lexington, Massachusetts, USA

78°F
8/3/2020 8:06am 
  • Lexington Conditions: Few Clouds
  • Temperature: 78.1°F / 25.6°CWarmer 1.6°F than last hour.
  • Dew Point: 72.9°FDecreased 1.8°Fsince last hour.
  • Relative Humidity: 84%Decreased 10.0% since last hour.
  • Wind: Wind from WNW WNW 7 mph, 10-min avg: 3 mph, gust: 8 mph
  • Barometer: 29.86 inRising 0.02  inHg/hr Rising Slowly
  • Visibility: 10 miles
  • Rain Today: 0.00 in
  •   
Southeast Middlesex County - Tropical Storm Watch - Tropical Cyclone Statement
 - SEE ALL NEARBY ALERTS -

Regional Weather Roundup
for Boston / Norton, MA

        
000
ASUS41 KBOX 020805
RWRBOX

REGIONAL WEATHER ROUNDUP
NATIONAL WEATHER SERVICE BOSTON/NORTON MA
400 AM EDT SUN AUG 02 2020

NOTE:  "FAIR" INDICATES FEW OR NO CLOUDS BELOW 12,000 FEET WITH NO 
SIGNIFICANT WEATHER AND/OR OBSTRUCTIONS TO VISIBILITY.

MAZALL-020900-
EASTERN MASSACHUSETTS
  
CITY           SKY/WX    TMP DP  RH WIND       PRES   REMARKS
BOSTON         MOCLDY    71  67  87 S7        29.98S                  
BEVERLY        PTCLDY    70  67  90 SE3       29.98R                  
LAWRENCE       PTCLDY    71  68  90 CALM      29.99S                  
BEDFORD        MOCLDY    72  68  87 S5        29.97R                  
BLUE HILL      NOT AVBL                                               
NORWOOD        PTCLDY    71  67  87 S5        29.98S                  
MARSHFIELD     PTCLDY    73  73 100 SW3       29.99S                  
PLYMOUTH       PTCLDY    71  70  96 SW5       30.00S                  
TAUNTON        PTCLDY    70  67  90 CALM      29.99S                  
NEW BEDFORD    CLEAR     69  69 100 CALM      29.99F                  
$$

MAZALL-020900-
CAPE COD AND THE ISLANDS
  
CITY           SKY/WX    TMP DP  RH WIND       PRES   REMARKS
FALMOUTH       CLEAR     68  68 100 CALM      30.01S                  
HYANNIS        CLEAR     74  70  87 SW6       29.99S                  
CHATHAM        CLEAR     73  69  87 SW6       30.02R                  
PROVINCETOWN   PTCLDY    73  70  90 S8        30.01R                  
NANTUCKET      CLEAR     68  66  93 CALM      30.01S FOG              
MARTHAS VNYRD  CLEAR     63  61  93 CALM      30.00F FOG              
$$
 
MAZALL-020900-
CENTRAL AND WESTERN MASSACHUSETTS
  
CITY           SKY/WX    TMP DP  RH WIND       PRES   REMARKS
WORCESTER      MOCLDY    70  63  78 SW8       30.01F                  
FITCHBURG      MOCLDY    68  64  87 CALM      29.99S                  
ORANGE         MOCLDY    67  65  93 CALM      29.99F                  
SPRINGFIELD    MOCLDY    73  65  77 S5        29.96F                  
WESTFIELD      CLOUDY    73  64  73 S3        29.97S                  
NORTH ADAMS    CLOUDY    70  61  73 E9        29.97S                  
PITTSFIELD     CLOUDY    67  63  87 CALM      29.98F                  
$$
 
RIZALL-020900-
RHODE ISLAND
  
CITY           SKY/WX    TMP DP  RH WIND       PRES   REMARKS
PROVIDENCE     PTCLDY    71  69  93 CALM      29.99F                  
NEWPORT        CLEAR     74  70  87 CALM      29.99F                  
BLOCK ISLAND   CLEAR     71  69  93 S6        29.99F                  
SMITHFIELD     PTCLDY    69  69 100 VRB3      30.00F                  
WESTERLY       PTCLDY    68  65  90 N3        29.99F                  
$$
 
CTZALL-020900-
CONNECTICUT
  
CITY           SKY/WX    TMP DP  RH WIND       PRES   REMARKS
BRADLEY INTL   CLOUDY    74  67  78 SE5       29.96F                  
HARTFORD       CLOUDY    75  69  81 CALM      29.96F                  
BRIDGEPORT     CLOUDY    75  71  87 SE5       29.95F                  
DANBURY        CLOUDY    73  70  90 SE3       29.97F                  
GROTON         MOCLDY    70  69  97 CALM      29.97F                  
NEW HAVEN      MOCLDY    76  73  91 CALM      29.97S                  
CHESTER        NOT AVBL                                               
MERIDEN        CLOUDY    72  68  87 CALM      29.96F                  
WILLIMANTIC    MOCLDY    69  67  93 CALM      29.99F                  
OXFORD         MOCLDY    71  69  93 S3        29.99F                  
$$

MEZ002-015-021-024-NHZ003-005-008-011-012-014-VTZ005-008-020900-
NORTHERN NEW ENGLAND
  
CITY           SKY/WX    TMP DP  RH WIND       PRES   REMARKS
PORTLAND ME    CLEAR     68  61  78 CALM      29.98R                  
BANGOR ME      PTCLDY    65  62  90 S3        29.98S                  
CONCORD NH     PTCLDY    64  61  90 CALM      29.98S                  
MANCHESTER NH  MOCLDY    71  64  78 SW3       29.96S                  
NASHUA NH      MOCLDY    67  66  97 NW3       29.98S                  
PORTSMOUTH NH  PTCLDY    66  62  86 CALM      29.96S                  
JAFFREY NH     MOCLDY    65  62  90 CALM      30.01S                  
KEENE NH       MOCLDY    64  63  96 CALM      29.99S                  
BURLINGTON VT  MOCLDY    69  61  75 E3        29.91F                  
MT. WASHINGTON PTCLDY    54  50  87 SW13        N/A                   
$$

NYZ052-076-020900-
EASTERN NEW YORK
  
CITY           SKY/WX    TMP DP  RH WIND       PRES   REMARKS
ALBANY         CLOUDY    73  62  68 S9        29.93S                  
NEW YORK CITY  CLOUDY    79  70  74 S7        29.93F                  
$$
 
ANZALL-020900-
MARINE OBSERVATIONS
  
STATION/POSITION TIME  TEMP    WIND        PRES    VSBY  WAVE
                       AIR SEA DIR/SP/G                  HT/PER
                 (UTC) (F)     (DEG/KT/KT) (MB)    (MI)  (FT/S)
BOSTON BUOY      0750   72 71  200/  6/  8 1014.3R         1/11
BUZZARDS BAY     0700          210/ 10/ 11 1016.8S
NANTUCKET SOUND  0740      76  220/ 10/ 12 1015.3
MASS BAY-STELLWA 0704   72     230/ 10/ 10 1012.9S  1 7/8  2/11
ISLE OF SHOALS   0700   72     200/ 11/ 11 1014.4F
S OF BLOCK IS    0726      74                N/A           3/11
$$

......................KEY.........................
  SKY/WX - SKY CONDITION/PRESENT WEATHER
  TMP    - TEMPERATURE IN FAHRENHEIT
  DWPT   - DEWPOINT IN FAHRENHEIT
  RH     - RELATIVE HUMIDITY IN PERCENT
  WIND   - DIRECTION AND SPEED IN MPH
  PRES   - MEAN SEA LEVEL PRESSURE IN INCHES OF HG
  WCI    - WIND CHILL INDEX
  VSB    - VISIBILITY IN MILES
  HX     - HEAT INDEX
  TC     - TEMPERATURE IN CELSIUS
  VRB    - VARIABLE WIND DIRECTION
  N/A    - NOT AVAILABLE
  
      

Other recent Regional Weather Roundups

Mon Aug 3, 7:04am

Mon Aug 3, 6:04am

Mon Aug 3, 5:04am

Mon Aug 3, 4:04am

Mon Aug 3, 3:04am

Mon Aug 3, 2:04am

Mon Aug 3, 1:04am

Mon Aug 3, 12:05am

Sun Aug 2, 11:04pm

Sun Aug 2, 10:04pm

Sun Aug 2, 9:04pm

Sun Aug 2, 8:04pm

Sun Aug 2, 7:04pm

Sun Aug 2, 6:04pm

Sun Aug 2, 5:04pm

Sun Aug 2, 4:05pm

Sun Aug 2, 3:04pm

Sun Aug 2, 2:05pm

Sun Aug 2, 1:04pm

Sun Aug 2, 12:04pm

Sun Aug 2, 11:04am

Sun Aug 2, 10:04am

Sun Aug 2, 9:05am

Sun Aug 2, 8:05am

Sun Aug 2, 7:04am

Sun Aug 2, 6:04am

Sun Aug 2, 5:04am

Sun Aug 2, 3:04am

Sun Aug 2, 2:04am

Sun Aug 2, 1:04am

Sun Aug 2, 12:05am

Sat Aug 1, 11:04pm

Sat Aug 1, 10:04pm

Sat Aug 1, 9:04pm

Sat Aug 1, 8:05pm

Sat Aug 1, 7:04pm

Sat Aug 1, 6:04pm

Sat Aug 1, 5:05pm

Sat Aug 1, 4:05pm

Sat Aug 1, 3:04pm

Sat Aug 1, 2:04pm

Sat Aug 1, 1:04pm

Sat Aug 1, 12:04pm

Sat Aug 1, 11:05am

Sat Aug 1, 10:05am

Sat Aug 1, 9:04am

Sat Aug 1, 8:04am

Sat Aug 1, 7:04am

Sat Aug 1, 6:04am

Sat Aug 1, 5:04am

Sat Aug 1, 4:05am

Sat Aug 1, 3:04am

Sat Aug 1, 2:04am

Sat Aug 1, 1:04am

Sat Aug 1, 12:05am

Fri Jul 31, 11:05pm

Fri Jul 31, 10:04pm

Fri Jul 31, 9:04pm

Fri Jul 31, 8:05pm

Fri Jul 31, 7:05pm

Fri Jul 31, 6:04pm

Fri Jul 31, 5:04pm

Fri Jul 31, 4:05pm

Fri Jul 31, 3:04pm

Fri Jul 31, 2:05pm

Fri Jul 31, 1:04pm

Fri Jul 31, 12:04pm

Fri Jul 31, 11:04am

Fri Jul 31, 10:04am

Fri Jul 31, 9:04am

Fri Jul 31, 8:04am

Fri Jul 31, 7:04am

Fri Jul 31, 6:04am

Fri Jul 31, 5:04am

Fri Jul 31, 4:04am

Fri Jul 31, 3:04am

Fri Jul 31, 2:04am

Fri Jul 31, 1:05am

Fri Jul 31, 12:04am

Thu Jul 30, 11:04pm

Thu Jul 30, 10:04pm

Thu Jul 30, 9:04pm

Thu Jul 30, 8:04pm

Thu Jul 30, 7:05pm

Thu Jul 30, 6:04pm

Thu Jul 30, 5:04pm

Thu Jul 30, 4:05pm

Thu Jul 30, 3:04pm

Thu Jul 30, 2:05pm

Thu Jul 30, 1:04pm

Thu Jul 30, 12:04pm

Thu Jul 30, 11:04am

Thu Jul 30, 10:05am

Thu Jul 30, 9:04am

Thu Jul 30, 8:04am

Thu Jul 30, 7:04am

Thu Jul 30, 6:04am

Thu Jul 30, 5:04am

Thu Jul 30, 4:04am

Thu Jul 30, 3:04am

Thu Jul 30, 2:04am

Thu Jul 30, 1:04am

Thu Jul 30, 12:04am

Wed Jul 29, 11:04pm

Wed Jul 29, 10:04pm

Wed Jul 29, 9:04pm

Wed Jul 29, 8:04pm

Wed Jul 29, 7:05pm

Wed Jul 29, 6:05pm

Wed Jul 29, 5:04pm

Wed Jul 29, 4:04pm

Wed Jul 29, 3:04pm

Wed Jul 29, 2:04pm

Wed Jul 29, 1:05pm

Wed Jul 29, 12:05pm

Wed Jul 29, 11:04am

Wed Jul 29, 10:04am

Wed Jul 29, 9:04am

Wed Jul 29, 8:04am

Wed Jul 29, 7:04am

Wed Jul 29, 6:04am

Wed Jul 29, 5:04am

Wed Jul 29, 4:04am

Wed Jul 29, 3:04am

Wed Jul 29, 2:04am

Wed Jul 29, 1:04am

Wed Jul 29, 12:05am

Tue Jul 28, 11:05pm

Tue Jul 28, 10:05pm

Tue Jul 28, 9:04pm

Tue Jul 28, 8:04pm

Tue Jul 28, 7:04pm

Tue Jul 28, 6:04pm

Tue Jul 28, 5:04pm

Tue Jul 28, 4:05pm

Tue Jul 28, 3:05pm

Tue Jul 28, 2:04pm

Tue Jul 28, 1:05pm

Tue Jul 28, 12:04pm

Tue Jul 28, 11:04am

Tue Jul 28, 10:04am

Tue Jul 28, 9:04am

Tue Jul 28, 8:04am

Tue Jul 28, 7:04am

Tue Jul 28, 6:04am

Tue Jul 28, 5:04am

Tue Jul 28, 4:04am

Tue Jul 28, 3:04am

Tue Jul 28, 2:04am

Tue Jul 28, 1:04am

Tue Jul 28, 12:05am

Mon Jul 27, 11:04pm

Mon Jul 27, 10:05pm

Mon Jul 27, 9:05pm

Mon Jul 27, 8:04pm

Mon Jul 27, 7:04pm

Mon Jul 27, 6:05pm

Mon Jul 27, 5:05pm

Mon Jul 27, 4:04pm

Mon Jul 27, 3:04pm

Mon Jul 27, 2:04pm

Mon Jul 27, 1:04pm

Mon Jul 27, 12:04pm

Mon Jul 27, 11:04am

Mon Jul 27, 10:04am

Mon Jul 27, 9:04am

Mon Jul 27, 8:04am

Meta data:

ID: d422538e-cf47-40f5-be16-f527ea2021e8
Link: https://api.weather.gov/products/d422538e-cf47-40f5-be16-f527ea2021e8